Location: Unspecified
(0.0000°N, 0.0000°E)
Time: 23:26:49
(UTC+02:00)

Cosmos 2237 Rocket - Visible Passes

Search period start: 31 July 2015 00:00
Search period end: 10 August 2015 00:00
Orbit: 837 x 848 km, 71.0° (Epoch: 31 July)

Date Brightness Start Highest point End Pass type
(mag) Time Alt. Az. Time Alt. Az. Time Alt. Az.
31 Jul 3.8 20:44:06 10° NE 20:47:16 16° ENE 20:49:49 13° ESE visible
31 Jul 3.5 22:26:11 10° NW 22:31:16 34° WSW 22:31:43 33° WSW visible
01 Aug 3.8 20:29:33 10° NE 20:32:28 15° ENE 20:35:46 10° ESE visible
01 Aug 3.5 22:11:18 10° NW 22:16:27 36° WSW 22:18:21 28° SW visible
02 Aug 3.4 21:56:26 10° NW 22:01:39 39° WSW 22:05:05 19° SSW visible
03 Aug 3.3 21:41:33 10° NW 21:46:51 42° WSW 21:51:56 11° S visible
04 Aug 3.2 21:26:42 10° NW 21:32:03 44° WSW 21:37:24 10° S visible
05 Aug 3.1 21:11:51 10° NNW 21:17:15 48° WSW 21:22:40 10° S visible
06 Aug 3.1 20:57:00 10° NNW 21:02:27 51° WSW 21:07:56 10° S visible
07 Aug 3.0 20:42:10 10° NNW 20:47:40 55° WSW 20:53:11 10° S visible
08 Aug 2.9 20:27:20 10° NNW 20:32:52 58° WSW 20:38:25 10° S visible
09 Aug 3.9 07:28:35 10° S 07:33:39 35° ESE 07:38:47 10° NE visible
